METEOR 2-17 DEB, 35365

Orbit data source: Space-Track

METEOR 2-17 DEB, 35365 is space debris in LEO originally from a launch on Sat, 30 Jan 1988 UTC launched from the Plesetsk Missile And Space Complex (PKMTR). Debris objects in space refer to the collection of defunct objects orbiting the Earth. Examples of debris include non-operational satellites, rocket bodies, and fragments generated from explosions, collisions, or faulty payload assembly.

Loading next visibility...
Identifier
35365, 1988-005Z
Orbit
LEO
Country
Flag of CISCIS
Related business
Manufacturer
Unknown
Mission
Spacecraft
Bus & Motor
Unknown
Mass
Unknown
Launch date (UTC)
1988-01-30 (38 years ago)
Launch vehicle
Unknown
Launch site
Plesetsk Missile And Space Complex (PKMTR)
Object type
Payload
Rocket body
Debris
Shape & HBR
Unknown shape, 0.1 m
Radar Cross Section
Small (<0.1 m²)

Expand to show TLE details & history
Last TLE update: 1 day ago

TLE from 1 day ago
0 METEOR 2-17 DEB
1 35365U 88005Z   25305.68002340  .00002381  00000-0  16039-2 0  9996
2 35365  82.5026  83.7095 0007524 185.4700 190.3294 14.00174083588256
Epoch: 2025-11-01T16:19Z
TLE epoch observation values (Epoch: 2025-11-01T16:19:14.021Z)
Latitude
15.62411°
Longitude
159.79262°
Altitude
900.818 km
Speed
7.4 km/s
True Right ascension
05h 43m 13s
True Declination
15° 32' 13"
Sunlit
Object was in full shadow at epoch
Visualization orbit readout
Latitude
Unknown
Longitude
Unknown
Altitude
Unknown
Speed
Unknown
Apparent Right ascension
Unknown
Apparent Declination
Unknown
Sunlit
N/A
Visualization observer readout
Local Sidereal Time
16:42:34
Azimuth
Unknown
Elevation
Unknown
Doppler factor
Unknown
Orbital elements
Apogee altitude
895.793 km
Perigee altitude
884.855 km
Semi-major axis
7,268.461 km
Eccentricity
0.00075
Inclination
82.5026°
RAAN
83.7095°
Arg. of periapsis
185.47°
True anomaly
190.31395°
Mean anomaly
190.3294°
Eccentric anomaly
190.32168°
Mean motion
3.50251 °/min
Orbital period
102.78 mins
BSTAR
0.0016039
Loading maneuver chart data...
Computing Atmospheric mass density...
Loading historical data...
Loading historical data...
Loading historical data...
Loading historical data...
Loading historical data...
Loading historical data...
Loading historical data...

Documentation

Showing up to 5 results
|